UAE342 OMDB-VABB

Flight info

Callsign UAE342
Flight time N/A
Altitude 35000
Route IVURO M677 LALDO/N0485F390 B505 NADSO A777 VAXIM L301 KARKU M638 EXOLU POKON2A
Aircraft B77L/H-SDE1E2E3FGHIJ2J3J4J5M1RWXY/LB1D1

Departure

Time 2026-04-30 08:43
Airport Dubai International Airport (OMDB)

Arrival

Time N/A
Airport Chhatrapati Shivaji Maharaj International Airport (VABB)
Time Latitude Longitude Altitude Speed Heading
2026-04-30 08:13 25.23458 55.38966 55 ft 0 kts 259°
2026-04-30 08:34 25.23460 55.38979 64 ft 2 kts 260°
2026-04-30 08:34 25.23462 55.38996 55 ft 2 kts 260°
2026-04-30 08:34 25.23465 55.39014 58 ft 2 kts 260°
2026-04-30 08:35 25.23468 55.39031 55 ft 2 kts 260°
2026-04-30 08:35 25.23471 55.39049 58 ft 2 kts 260°
2026-04-30 08:35 25.23474 55.39066 58 ft 2 kts 261°
2026-04-30 08:35 25.23478 55.39084 57 ft 2 kts 177°
2026-04-30 08:36 25.23485 55.39085 55 ft 0 kts 117°
2026-04-30 08:39 25.23440 55.39169 63 ft 15 kts 122°
2026-04-30 08:40 25.23385 55.39268 63 ft 8 kts 121°
2026-04-30 08:40 25.23365 55.39323 58 ft 4 kts 86°
2026-04-30 08:40 25.23378 55.39356 67 ft 8 kts 55°
2026-04-30 08:40 25.23437 55.39409 59 ft 6 kts 30°
2026-04-30 08:41 25.23518 55.39461 47 ft 6 kts 32°
2026-04-30 08:41 25.23559 55.39490 45 ft 7 kts 33°
2026-04-30 08:41 25.23596 55.39476 48 ft 7 kts 303°
2026-04-30 08:41 25.23606 55.39455 48 ft 0 kts 298°
2026-04-30 08:42 25.23610 55.39448 48 ft 7 kts 301°
2026-04-30 08:42 25.23750 55.39197 44 ft 92 kts 302°
2026-04-30 08:43 25.24229 55.38309 474 ft 147 kts 301°
2026-04-30 08:43 25.24704 55.37402 1713 ft 132 kts 304°
2026-04-30 08:43 25.25195 55.36550 2325 ft 136 kts 306°
2026-04-30 08:43 25.25688 55.35625 2996 ft 138 kts 302°
2026-04-30 08:44 25.26269 55.34649 3383 ft 170 kts 307°
2026-04-30 08:44 25.27022 55.33472 3677 ft 205 kts 307°
2026-04-30 08:44 25.27862 55.32148 4288 ft 219 kts 306°
2026-04-30 08:44 25.28769 55.30751 5036 ft 227 kts 311°
2026-04-30 08:45 25.30088 55.29746 5788 ft 237 kts 338°
2026-04-30 08:45 25.31691 55.29481 6811 ft 234 kts 357°
2026-04-30 08:45 25.33365 55.29515 7434 ft 246 kts 358°
2026-04-30 08:45 25.35103 55.29567 8169 ft 254 kts 358°
2026-04-30 08:46 25.36899 55.29624 8944 ft 260 kts 356°
2026-04-30 08:46 25.38722 55.29720 9693 ft 267 kts
2026-04-30 08:46 25.40478 55.30589 10214 ft 294 kts 37°
2026-04-30 08:46 25.41838 55.32320 10719 ft 308 kts 51°
2026-04-30 08:47 25.43169 55.34219 11466 ft 316 kts 50°
2026-04-30 08:47 25.44555 55.36163 12391 ft 320 kts 50°
2026-04-30 08:47 25.45649 55.38277 13217 ft 327 kts 73°
2026-04-30 08:47 25.45753 55.40779 14072 ft 327 kts 103°
2026-04-30 08:48 25.45256 55.43239 14853 ft 331 kts 105°
2026-04-30 08:48 25.44766 55.45750 15662 ft 338 kts 105°
2026-04-30 08:48 25.44281 55.48346 16364 ft 353 kts 104°
2026-04-30 08:48 25.43779 55.51107 16649 ft 382 kts 104°
2026-04-30 08:49 25.43247 55.54101 16844 ft 412 kts 103°
2026-04-30 08:49 25.42690 55.57320 17158 ft 436 kts 103°
2026-04-30 08:49 25.42122 55.60665 17829 ft 448 kts 103°
2026-04-30 08:49 25.41742 55.62922 18323 ft 453 kts 103°
2026-04-30 08:50 25.41165 55.66356 19053 ft 459 kts 103°
2026-04-30 08:50 25.40382 55.71016 20024 ft 467 kts 103°
2026-04-30 08:50 25.39781 55.74571 20706 ft 475 kts 104°
2026-04-30 08:50 25.39366 55.77020 21171 ft 479 kts 104°
2026-04-30 08:51 25.38543 55.81858 22086 ft 488 kts 104°
2026-04-30 08:51 25.38124 55.84319 22523 ft 492 kts 104°
2026-04-30 08:51 25.37488 55.88053 23166 ft 498 kts 104°
2026-04-30 08:51 25.36837 55.91862 23735 ft 505 kts 104°
2026-04-30 08:52 25.36181 55.95700 24306 ft 509 kts 104°
2026-04-30 08:52 25.35528 55.99519 24898 ft 511 kts 104°
2026-04-30 08:52 25.34865 56.03393 25478 ft 515 kts 104°
2026-04-30 08:52 25.34196 56.07287 26042 ft 519 kts 104°
2026-04-30 08:53 25.33518 56.11226 26560 ft 523 kts 104°
2026-04-30 08:53 25.32846 56.15205 27072 ft 528 kts 103°
2026-04-30 08:53 25.32391 56.19245 27569 ft 534 kts 98°
2026-04-30 08:53 25.32080 56.23346 28076 ft 537 kts 97°
2026-04-30 08:54 25.31777 56.27482 28556 ft 540 kts 97°
2026-04-30 08:54 25.31458 56.31583 28947 ft 545 kts 98°
2026-04-30 08:54 25.31107 56.35813 29323 ft 549 kts 98°
2026-04-30 08:54 25.30770 56.39981 29706 ft 552 kts 97°
2026-04-30 08:55 25.30598 56.44292 30049 ft 556 kts 94°
2026-04-30 08:55 25.30510 56.48510 30461 ft 556 kts 94°
2026-04-30 08:55 25.30410 56.52768 30949 ft 553 kts 95°
2026-04-30 08:55 25.30043 56.56984 31506 ft 546 kts 102°
2026-04-30 08:56 25.29297 56.61075 32119 ft 540 kts 107°
2026-04-30 08:56 25.28285 56.65054 32627 ft 536 kts 112°
2026-04-30 08:56 25.26961 56.68886 33109 ft 532 kts 117°
2026-04-30 08:56 25.25506 56.72649 33611 ft 532 kts 117°
2026-04-30 08:57 25.24060 56.76357 34106 ft 530 kts 117°
2026-04-30 08:57 25.22611 56.80088 34591 ft 528 kts 117°
2026-04-30 08:57 25.21165 56.83837 34802 ft 531 kts 117°
2026-04-30 08:58 25.18281 56.91386 34785 ft 530 kts 117°
2026-04-30 08:58 25.15444 56.98857 34783 ft 527 kts 117°
2026-04-30 08:59 25.12617 57.06278 34784 ft 525 kts 117°
2026-04-30 08:59 25.09784 57.13696 34792 ft 524 kts 117°
2026-04-30 09:00 25.06941 57.21122 34795 ft 525 kts 117°
2026-04-30 09:00 25.04094 57.28546 34800 ft 525 kts 117°
2026-04-30 09:01 25.01241 57.35973 34796 ft 526 kts 117°
2026-04-30 09:01 24.98394 57.43372 34785 ft 527 kts 117°
2026-04-30 09:02 24.94098 57.54516 34794 ft 526 kts 117°
2026-04-30 09:02 24.91224 57.61953 34791 ft 526 kts 117°
2026-04-30 09:03 24.88359 57.69356 34796 ft 526 kts 117°
2026-04-30 09:03 24.85477 57.76790 34790 ft 526 kts 117°
2026-04-30 09:04 24.82593 57.84185 34777 ft 525 kts 118°
2026-04-30 09:04 24.79472 57.91429 34784 ft 523 kts 120°
2026-04-30 09:05 24.76252 57.98604 34790 ft 522 kts 120°
2026-04-30 09:05 24.73088 58.05732 34787 ft 522 kts 120°
2026-04-30 09:06 24.69929 58.12926 34788 ft 521 kts 120°
2026-04-30 09:06 24.66776 58.20115 34789 ft 521 kts 120°
2026-04-30 09:07 24.63620 58.27291 34783 ft 522 kts 120°
2026-04-30 09:07 24.60443 58.34500 34784 ft 522 kts 120°
2026-04-30 09:08 24.57292 58.41634 34781 ft 522 kts 120°
2026-04-30 09:08 24.54113 58.48825 34784 ft 523 kts 120°
2026-04-30 09:09 24.50931 58.56011 34780 ft 523 kts 120°
2026-04-30 09:09 24.47747 58.63190 34775 ft 523 kts 120°
2026-04-30 09:10 24.44560 58.70368 34773 ft 522 kts 120°
2026-04-30 09:10 24.41406 58.77459 34775 ft 521 kts 120°
2026-04-30 09:11 24.38226 58.84617 34775 ft 521 kts 120°
2026-04-30 09:11 24.35047 58.91775 34775 ft 520 kts 120°
2026-04-30 09:12 24.31891 58.98869 34773 ft 520 kts 120°
2026-04-30 09:12 24.28724 59.05977 34767 ft 520 kts 120°
2026-04-30 09:13 24.25537 59.13117 34771 ft 519 kts 120°
2026-04-30 09:13 24.22363 59.20218 34770 ft 519 kts 120°
2026-04-30 09:14 24.19198 59.27287 34773 ft 519 kts 120°
2026-04-30 09:14 24.16009 59.34400 34768 ft 519 kts 120°
2026-04-30 09:15 24.12839 59.41459 34769 ft 519 kts 120°
2026-04-30 09:15 24.09645 59.48564 34767 ft 519 kts 120°
2026-04-30 09:16 24.06452 59.55644 34769 ft 519 kts 120°
2026-04-30 09:16 24.03249 59.62720 34762 ft 519 kts 120°
2026-04-30 09:17 24.00037 59.69810 34769 ft 519 kts 120°
2026-04-30 09:17 23.96845 59.76850 34769 ft 519 kts 120°
2026-04-30 09:18 23.93633 59.83923 34770 ft 519 kts 120°
2026-04-30 09:18 23.90410 59.91009 34767 ft 519 kts 120°
2026-04-30 09:19 23.87213 59.98030 34767 ft 520 kts 120°
2026-04-30 09:19 23.83987 60.05103 34766 ft 520 kts 120°
2026-04-30 09:20 23.80762 60.12161 34768 ft 520 kts 120°
2026-04-30 09:20 23.77521 60.19245 34761 ft 520 kts 120°
2026-04-30 09:21 23.74280 60.26318 34775 ft 520 kts 120°
2026-04-30 09:21 23.71058 60.33341 34777 ft 521 kts 120°
2026-04-30 09:22 23.67811 60.40407 34771 ft 521 kts 120°
2026-04-30 09:22 23.64551 60.47489 34758 ft 521 kts 120°
2026-04-30 09:23 23.61318 60.54503 34767 ft 521 kts 120°
2026-04-30 09:23 23.58055 60.61573 34772 ft 521 kts 120°
2026-04-30 09:24 23.54795 60.68625 34747 ft 521 kts 120°
2026-04-30 09:24 23.51550 60.75635 34765 ft 520 kts 120°
2026-04-30 09:25 23.48285 60.82678 34771 ft 520 kts 120°
2026-04-30 09:25 23.45021 60.89707 34771 ft 520 kts 120°
2026-04-30 09:26 23.41747 60.96749 34768 ft 520 kts 120°
2026-04-30 09:26 23.38477 61.03775 34767 ft 520 kts 120°
2026-04-30 09:27 23.35200 61.10804 34763 ft 520 kts 120°
2026-04-30 09:27 23.32398 61.18072 34763 ft 523 kts 109°
2026-04-30 09:28 23.30905 61.25785 34769 ft 526 kts 97°
2026-04-30 09:28 23.30236 61.33708 34771 ft 526 kts 96°
2026-04-30 09:29 23.29601 61.41654 34844 ft 530 kts 97°
2026-04-30 09:29 23.29264 61.45636 35211 ft 530 kts 97°
2026-04-30 09:29 23.28917 61.49618 35757 ft 526 kts 97°
2026-04-30 09:30 23.28565 61.53565 36323 ft 522 kts 97°
2026-04-30 09:30 23.28215 61.57440 36865 ft 519 kts 97°
2026-04-30 09:30 23.27857 61.61379 37378 ft 517 kts 97°
2026-04-30 09:30 23.27506 61.65215 37817 ft 515 kts 97°
2026-04-30 09:31 23.27153 61.69081 38240 ft 515 kts 97°
2026-04-30 09:31 23.26799 61.72946 38633 ft 514 kts 97°
2026-04-30 09:31 23.26444 61.76817 38798 ft 516 kts 97°
2026-04-30 09:31 23.26084 61.80731 38763 ft 518 kts 97°
2026-04-30 09:32 23.25798 61.83842 38772 ft 517 kts 97°
2026-04-30 09:32 23.25156 61.90799 38758 ft 512 kts 97°